Location: Boone Canyon
(38.3180°N, 119.2504°W)
Time: 17:33:42
(UTC+00:00)

IRIDIUM 103 - Pass Details

Date: 18 September 2020
Orbit: 776 x 779 km, 86.4° (Epoch: 19 October)

Event Time Altitude Azimuth Distance (km) Brightness Sun altitude
Rises 12:20:45 0° 354° (N) 3,266 7.7 -16.5°
Reaches altitude 10° 12:23:07 10° 351° (N) 2,334 6.9 -16.0°
Maximum altitude 12:28:17 65° 271° (W) 850 4.3 -15.1°
Drops below altitude 10° 12:33:25 10° 190° (S) 2,317 6.6 -14.1°
Sets 12:35:45 0° 187° (S) 3,240 7.3 -13.6°
